START_TIME,STEP,MOV.,AL01,t_acc.,AL02,t_acc.,E37,t_acc.,H21,t_acc.
1981-08-25 06:00:35.290 ,0,0,0.,24.0,0.,24.0,0.,24.0,0.,24.0
1981-08-25 06:01:03.490 ,0,0,0.,24.0,0.,24.0,0.,24.0,0.,24.0
1981-08-25 06:01:23.290 ,0,0,0.,24.0,0.,24.0,0.,24.0,0.,24.0
1981-08-25 06:01:47.290 ,2,1,0.,24.0,0.,24.0,0.,24.0,0.,24.0
1981-08-25 06:02:11.290 ,2,0,0.,24.0,0.,24.0,0.,24.0,0.,24.0
1981-08-25 06:02:35.290 ,3,1,0.,24.0,0.,24.0,0.,24.0,0.,24.0
1981-08-25 06:02:59.290 ,3,0,0.,24.0,0.,24.0,0.,24.0,0.,24.0
1981-08-25 06:03:23.290 ,4,1,0.,24.0,0.,24.0,0.,24.0,0.,24.0
1981-08-25 06:03:47.290 ,4,0,0.,24.0,0.,24.0,0.,24.0,0.,24.0
1981-08-25 06:04:11.290 ,5,1,0.,24.0,0.,24.0,0.,24.0,0.,24.0
1981-08-25 06:04:35.290 ,5,0,0.,24.0,0.,24.0,0.,24.0,0.,24.0
1981-08-25 06:04:59.290 ,6,1,0.,24.0,0.,24.0,0.,24.0,0.,24.0
1981-08-25 06:05:23.290 ,6,0,0.,24.0,0.,24.0,0.,24.0,0.,24.0
1981-08-25 06:05:47.290 ,7,1,2.,24.0,0.,24.0,0.,24.0,0.,24.0
1981-08-25 06:06:11.290 ,7,0,27.,24.0,0.,24.0,0.,24.0,0.,24.0
1981-08-25 06:06:35.290 ,7,1,24.,24.0,0.,24.0,0.,24.0,0.,24.0
1981-08-25 06:06:59.290 ,7,0,41.,24.0,0.,24.0,0.,24.0,0.,24.0
1981-08-25 06:07:23.290 ,6,1,23.,24.0,0.,24.0,0.,24.0,0.,24.0
1981-08-25 06:07:47.290 ,6,0,0.,24.0,0.,24.0,0.,24.0,0.,24.0
1981-08-25 06:08:11.290 ,5,1,0.,24.0,0.,24.0,0.,24.0,0.,24.0
1981-08-25 06:08:35.290 ,5,0,0.,24.0,0.,24.0,0.,24.0,0.,24.0
1981-08-25 06:08:59.290 ,4,1,0.,24.0,0.,24.0,0.,24.0,0.,24.0
1981-08-25 06:09:23.290 ,4,0,0.,24.0,0.,24.0,0.,24.0,0.,24.0
1981-08-25 06:09:47.290 ,3,1,0.,24.0,0.,24.0,0.,24.0,0.,24.0
1981-08-25 06:10:11.290 ,3,0,0.,24.0,0.,24.0,0.,24.0,0.,24.0
1981-08-25 06:10:35.290 ,2,1,0.,24.0,0.,24.0,0.,24.0,0.,24.0
1981-08-25 06:10:59.290 ,2,0,0.,24.0,0.,24.0,0.,24.0,0.,24.0
1981-08-25 06:11:23.290 ,1,1,0.,24.0,0.,24.0,0.,24.0,0.,24.0
1981-08-25 06:11:47.290 ,1,0,0.,24.0,0.,24.0,0.,24.0,0.,24.0
1981-08-25 06:12:11.290 ,0,1,0.,24.0,1.,24.0,0.,24.0,0.,24.0
1981-08-25 06:12:35.290 ,0,0,0.,24.0,0.,24.0,0.,24.0,0.,24.0
1981-08-25 06:12:59.290 ,0,1,0.,24.0,0.,24.0,0.,24.0,0.,24.0
1981-08-25 06:13:23.290 ,0,0,0.,24.0,1.,24.0,0.,24.0,0.,24.0
1981-08-25 06:13:47.290 ,1,1,0.,24.0,0.,24.0,0.,24.0,0.,24.0
1981-08-25 06:14:11.290 ,1,0,0.,24.0,0.,24.0,0.,24.0,0.,24.0
1981-08-25 06:14:35.290 ,2,1,0.,24.0,0.,24.0,0.,24.0,0.,24.0
1981-08-25 06:14:59.290 ,2,0,0.,24.0,0.,24.0,0.,24.0,0.,24.0
1981-08-25 06:15:23.290 ,3,1,0.,24.0,0.,24.0,0.,24.0,0.,24.0
1981-08-25 06:15:47.290 ,3,0,0.,24.0,0.,24.0,0.,24.0,0.,24.0
1981-08-25 06:16:11.290 ,4,1,0.,24.0,0.,24.0,0.,24.0,0.,24.0
1981-08-25 06:16:35.290 ,4,0,0.,24.0,0.,24.0,0.,24.0,0.,24.0
1981-08-25 06:16:59.290 ,5,1,0.,24.0,0.,24.0,0.,24.0,0.,24.0
1981-08-25 06:17:23.290 ,5,0,0.,24.0,0.,24.0,0.,24.0,0.,24.0
1981-08-25 06:17:47.290 ,6,1,0.,24.0,0.,24.0,0.,24.0,0.,24.0
1981-08-25 06:18:11.290 ,6,0,0.,24.0,0.,24.0,0.,24.0,0.,24.0
1981-08-25 06:18:35.290 ,7,1,6.,24.0,1.,24.0,0.,24.0,0.,24.0
1981-08-25 06:18:59.290 ,7,0,30.,24.0,0.,24.0,0.,24.0,0.,24.0
1981-08-25 06:19:23.290 ,7,1,41.,24.0,0.,24.0,0.,24.0,0.,24.0
1981-08-25 06:19:47.290 ,7,0,25.,24.0,0.,24.0,0.,24.0,0.,24.0
1981-08-25 06:20:11.290 ,6,1,26.,24.0,0.,24.0,0.,24.0,0.,24.0
1981-08-25 06:20:35.290 ,6,0,0.,24.0,0.,24.0,0.,24.0,0.,24.0
1981-08-25 06:20:59.290 ,5,1,0.,24.0,0.,24.0,0.,24.0,0.,24.0
1981-08-25 06:21:23.290 ,5,0,0.,24.0,0.,24.0,0.,24.0,0.,24.0
1981-08-25 06:21:47.290 ,4,1,0.,24.0,0.,24.0,0.,24.0,0.,24.0
1981-08-25 06:22:11.290 ,4,0,0.,24.0,0.,24.0,0.,24.0,0.,24.0
1981-08-25 06:22:35.290 ,3,1,0.,24.0,0.,24.0,0.,24.0,0.,24.0
1981-08-25 06:22:59.290 ,3,0,0.,24.0,1.,24.0,0.,24.0,0.,24.0
1981-08-25 06:23:23.290 ,2,1,0.,24.0,0.,24.0,0.,24.0,0.,24.0
1981-08-25 06:23:47.290 ,2,0,0.,24.0,0.,24.0,0.,24.0,0.,24.0
1981-08-25 06:24:11.290 ,1,1,0.,24.0,0.,24.0,0.,24.0,0.,24.0
1981-08-25 06:24:35.290 ,1,0,0.,24.0,0.,24.0,0.,24.0,0.,24.0
1981-08-25 06:24:59.290 ,0,1,0.,24.0,0.,24.0,0.,24.0,0.,24.0
1981-08-25 06:25:23.290 ,0,0,0.,24.0,0.,24.0,0.,24.0,0.,24.0
1981-08-25 06:25:47.290 ,0,1,0.,24.0,0.,24.0,0.,24.0,0.,24.0
1981-08-25 06:26:11.290 ,0,0,0.,24.0,0.,24.0,0.,24.0,0.,24.0
1981-08-25 06:26:35.290 ,1,1,0.,24.0,0.,24.0,0.,24.0,0.,24.0
1981-08-25 06:26:59.290 ,1,0,0.,24.0,0.,24.0,0.,24.0,0.,24.0
1981-08-25 06:27:23.290 ,2,1,0.,24.0,0.,24.0,0.,24.0,0.,24.0
1981-08-25 06:27:47.290 ,2,0,0.,24.0,0.,24.0,0.,24.0,0.,24.0
1981-08-25 06:28:11.290 ,3,1,0.,24.0,0.,24.0,0.,24.0,0.,24.0
1981-08-25 06:28:35.290 ,3,0,0.,24.0,0.,24.0,0.,24.0,0.,24.0
1981-08-25 06:28:59.290 ,4,1,0.,24.0,0.,24.0,0.,24.0,0.,24.0
1981-08-25 06:29:23.290 ,4,0,0.,24.0,0.,24.0,0.,24.0,0.,24.0
1981-08-25 06:29:47.290 ,5,1,0.,24.0,0.,24.0,0.,24.0,0.,24.0
1981-08-25 06:30:11.290 ,5,0,0.,24.0,0.,24.0,0.,24.0,0.,24.0
1981-08-25 06:30:35.290 ,6,1,0.,24.0,0.,24.0,0.,24.0,0.,24.0
1981-08-25 06:30:59.290 ,6,0,0.,24.0,1.,24.0,0.,24.0,0.,24.0
1981-08-25 06:30:35.290 ,6,1,0.,24.0,0.,24.0,0.,24.0,0.,24.0
1981-08-25 06:30:59.290 ,6,0,0.,24.0,1.,24.0,0.,24.0,0.,24.0
1981-08-25 06:31:23.290 ,7,1,6.,24.0,0.,24.0,0.,24.0,0.,24.0
1981-08-25 06:31:47.290 ,7,0,25.,24.0,0.,24.0,0.,24.0,0.,24.0
1981-08-25 06:32:11.290 ,7,1,34.,24.0,0.,24.0,0.,24.0,0.,24.0
1981-08-25 06:32:35.290 ,7,0,30.,24.0,0.,24.0,0.,24.0,0.,24.0
1981-08-25 06:32:59.290 ,6,1,20.,24.0,0.,24.0,0.,24.0,0.,24.0
1981-08-25 06:33:23.290 ,6,0,0.,24.0,0.,24.0,0.,24.0,0.,24.0
1981-08-25 06:33:47.290 ,5,1,0.,24.0,0.,24.0,0.,24.0,0.,24.0
1981-08-25 06:34:11.290 ,5,0,0.,24.0,0.,24.0,0.,24.0,0.,24.0
1981-08-25 06:34:35.290 ,4,1,0.,24.0,0.,24.0,0.,24.0,0.,24.0
1981-08-25 06:34:59.290 ,4,0,0.,24.0,0.,24.0,0.,24.0,0.,24.0
1981-08-25 06:35:23.290 ,3,1,0.,24.0,0.,24.0,0.,24.0,0.,24.0
1981-08-25 06:35:47.290 ,3,0,0.,24.0,0.,24.0,0.,24.0,0.,24.0
1981-08-25 06:36:11.290 ,2,1,0.,24.0,0.,24.0,0.,24.0,0.,24.0
1981-08-25 06:36:35.290 ,2,0,1.,24.0,0.,24.0,0.,24.0,0.,24.0
1981-08-25 06:36:59.290 ,1,1,0.,24.0,0.,24.0,0.,24.0,0.,24.0
1981-08-25 06:37:23.290 ,1,0,0.,24.0,0.,24.0,0.,24.0,0.,24.0
1981-08-25 06:37:47.290 ,0,1,0.,24.0,0.,24.0,0.,24.0,0.,24.0
1981-08-25 06:38:11.290 ,0,0,0.,24.0,0.,24.0,0.,24.0,0.,24.0
1981-08-25 06:38:35.290 ,0,1,0.,24.0,0.,24.0,0.,24.0,0.,24.0
1981-08-25 06:38:59.290 ,0,0,0.,24.0,0.,24.0,0.,24.0,0.,24.0
1981-08-25 06:39:23.290 ,1,1,0.,24.0,0.,24.0,0.,24.0,0.,24.0
1981-08-25 06:39:47.290 ,1,0,0.,24.0,0.,24.0,0.,24.0,0.,24.0
1981-08-25 06:40:11.290 ,2,1,0.,24.0,0.,24.0,0.,24.0,0.,24.0
1981-08-25 06:40:35.290 ,2,0,0.,24.0,0.,24.0,0.,24.0,0.,24.0
1981-08-25 06:40:59.290 ,3,1,0.,24.0,0.,24.0,0.,24.0,0.,24.0
1981-08-25 06:41:23.290 ,3,0,0.,24.0,0.,24.0,0.,24.0,0.,24.0
1981-08-25 06:41:47.290 ,4,1,0.,24.0,0.,24.0,0.,24.0,0.,24.0
1981-08-25 06:42:11.290 ,4,0,0.,24.0,0.,24.0,0.,24.0,0.,24.0
1981-08-25 06:42:35.290 ,5,1,0.,24.0,0.,24.0,0.,24.0,0.,24.0
1981-08-25 06:42:59.290 ,5,0,0.,24.0,0.,24.0,0.,24.0,0.,24.0
1981-08-25 06:43:23.290 ,6,1,1.,24.0,0.,24.0,0.,24.0,0.,24.0
1981-08-25 06:43:47.290 ,6,0,0.,24.0,0.,24.0,0.,24.0,0.,24.0
1981-08-25 06:44:59.290 ,0,0,37.,24.0,0.,24.0,0.,24.0,0.,24.0
1981-08-25 06:45:23.290 ,0,0,39.,24.0,0.,24.0,0.,24.0,0.,24.0
1981-08-25 06:45:47.290 ,6,1,28.,24.0,0.,24.0,0.,24.0,0.,24.0
1981-08-25 06:46:11.290 ,6,0,0.,24.0,0.,24.0,0.,24.0,0.,24.0
1981-08-25 06:46:35.290 ,5,1,0.,24.0,0.,24.0,0.,24.0,0.,24.0
1981-08-25 06:46:59.290 ,5,0,0.,24.0,0.,24.0,0.,24.0,0.,24.0
1981-08-25 06:47:23.290 ,4,1,0.,24.0,0.,24.0,0.,24.0,0.,24.0
1981-08-25 06:47:47.290 ,4,0,0.,24.0,0.,24.0,0.,24.0,0.,24.0
1981-08-25 06:48:11.290 ,3,1,0.,24.0,0.,24.0,0.,24.0,0.,24.0
1981-08-25 06:48:35.290 ,3,0,0.,24.0,0.,24.0,0.,24.0,0.,24.0
1981-08-25 06:48:59.290 ,2,1,0.,24.0,1.,24.0,0.,24.0,0.,24.0
1981-08-25 06:49:23.290 ,2,0,0.,24.0,0.,24.0,0.,24.0,0.,24.0
1981-08-25 06:49:47.290 ,1,1,0.,24.0,0.,24.0,0.,24.0,0.,24.0
1981-08-25 06:50:11.290 ,1,0,0.,24.0,0.,24.0,0.,24.0,0.,24.0
1981-08-25 06:50:35.290 ,0,1,1.,24.0,0.,24.0,0.,24.0,0.,24.0
1981-08-25 06:50:59.290 ,0,0,0.,24.0,0.,24.0,0.,24.0,0.,24.0
1981-08-25 06:51:23.290 ,0,1,0.,24.0,0.,24.0,0.,24.0,0.,24.0
1981-08-25 06:51:47.290 ,0,0,0.,24.0,0.,24.0,0.,24.0,0.,24.0
1981-08-25 06:52:11.290 ,1,1,0.,24.0,0.,24.0,0.,24.0,0.,24.0
1981-08-25 06:52:35.290 ,1,0,0.,24.0,0.,24.0,0.,24.0,0.,24.0
1981-08-25 06:52:59.290 ,2,1,0.,24.0,0.,24.0,0.,24.0,0.,24.0
1981-08-25 06:53:23.290 ,2,0,0.,24.0,0.,24.0,0.,24.0,0.,24.0
1981-08-25 06:53:47.290 ,3,1,0.,24.0,0.,24.0,0.,24.0,0.,24.0
1981-08-25 06:54:11.290 ,3,0,0.,24.0,0.,24.0,0.,24.0,0.,24.0
1981-08-25 06:54:35.290 ,4,1,0.,24.0,0.,24.0,0.,24.0,0.,24.0
1981-08-25 06:54:59.290 ,4,0,1.,24.0,0.,24.0,0.,24.0,0.,24.0
1981-08-25 06:55:23.290 ,5,1,1.,24.0,0.,24.0,0.,24.0,0.,24.0
1981-08-25 06:55:47.290 ,5,0,0.,24.0,0.,24.0,0.,24.0,0.,24.0
1981-08-25 06:56:11.290 ,6,1,0.,24.0,0.,24.0,0.,24.0,0.,24.0
1981-08-25 06:56:35.290 ,6,0,0.,24.0,0.,24.0,0.,24.0,0.,24.0
1981-08-25 06:56:59.290 ,7,1,6.,24.0,0.,24.0,0.,24.0,0.,24.0
1981-08-25 06:57:23.290 ,7,0,24.,24.0,0.,24.0,0.,24.0,0.,24.0
1981-08-25 06:57:47.290 ,7,1,38.,24.0,1.,24.0,0.,24.0,0.,24.0
1981-08-25 06:58:11.290 ,0,0,32.,24.0,0.,24.0,0.,24.0,0.,24.0
1981-08-25 07:01:30.490 ,0,0,0.,24.0,0.,24.0,0.,24.0,0.,24.0
1981-08-25 07:01:47.290 ,2,1,0.,24.0,0.,24.0,0.,24.0,0.,24.0
1981-08-25 07:02:11.290 ,2,0,0.,24.0,0.,24.0,0.,24.0,0.,24.0
1981-08-25 07:02:35.290 ,1,1,0.,24.0,0.,24.0,0.,24.0,0.,24.0
1981-08-25 07:02:59.290 ,1,0,0.,24.0,0.,24.0,0.,24.0,0.,24.0
1981-08-25 07:03:23.290 ,0,1,0.,24.0,0.,24.0,0.,24.0,0.,24.0
1981-08-25 07:03:47.290 ,0,0,0.,24.0,0.,24.0,0.,24.0,0.,24.0
1981-08-25 07:04:11.290 ,0,1,0.,24.0,0.,24.0,0.,24.0,0.,24.0
1981-08-25 07:04:35.290 ,0,0,0.,24.0,0.,24.0,0.,24.0,0.,24.0
1981-08-25 07:04:59.290 ,1,1,0.,24.0,0.,24.0,0.,24.0,0.,24.0
1981-08-25 07:05:23.290 ,1,0,0.,24.0,0.,24.0,0.,24.0,0.,24.0
1981-08-25 07:05:47.290 ,2,1,0.,24.0,0.,24.0,0.,24.0,0.,24.0
1981-08-25 07:06:11.280 ,2,0,0.,24.0,0.,24.0,0.,24.0,0.,24.0
1981-08-25 07:06:35.290 ,3,1,0.,24.0,0.,24.0,0.,24.0,0.,24.0
1981-08-25 07:06:59.290 ,3,0,0.,24.0,0.,24.0,0.,24.0,0.,24.0
1981-08-25 07:07:23.290 ,4,1,0.,24.0,0.,24.0,0.,24.0,0.,24.0
1981-08-25 07:07:47.290 ,4,0,0.,24.0,0.,24.0,0.,24.0,0.,24.0
1981-08-25 07:08:11.280 ,5,1,0.,24.0,0.,24.0,0.,24.0,0.,24.0
1981-08-25 07:08:35.280 ,5,0,1.,24.0,0.,24.0,0.,24.0,0.,24.0
1981-08-25 07:08:59.280 ,6,1,0.,24.0,1.,24.0,0.,24.0,0.,24.0
1981-08-25 07:09:23.280 ,6,0,0.,24.0,0.,24.0,0.,24.0,0.,24.0
1981-08-25 07:09:47.280 ,7,1,8.,24.0,0.,24.0,0.,24.0,0.,24.0
1981-08-25 07:10:11.280 ,7,0,37.,24.0,0.,24.0,0.,24.0,0.,24.0
1981-08-25 07:10:35.280 ,7,1,29.,24.0,0.,24.0,0.,24.0,0.,24.0
1981-08-25 07:10:59.280 ,7,0,29.,24.0,1.,24.0,0.,24.0,0.,24.0
1981-08-25 07:11:23.280 ,6,1,28.,24.0,0.,24.0,0.,24.0,0.,24.0
1981-08-25 07:11:47.280 ,6,0,1.,24.0,0.,24.0,0.,24.0,0.,24.0
1981-08-25 07:12:11.280 ,5,1,0.,24.0,0.,24.0,0.,24.0,0.,24.0
1981-08-25 07:12:35.280 ,5,0,0.,24.0,0.,24.0,0.,24.0,0.,24.0
1981-08-25 07:12:59.280 ,4,1,0.,24.0,0.,24.0,0.,24.0,0.,24.0
1981-08-25 07:13:23.280 ,4,0,1.,24.0,0.,24.0,0.,24.0,0.,24.0
1981-08-25 07:13:47.280 ,3,1,0.,24.0,0.,24.0,0.,24.0,0.,24.0
1981-08-25 07:14:11.280 ,3,0,0.,24.0,0.,24.0,0.,24.0,0.,24.0
1981-08-25 07:14:35.280 ,2,1,0.,24.0,0.,24.0,0.,24.0,0.,24.0
1981-08-25 07:14:59.280 ,2,0,0.,24.0,0.,24.0,0.,24.0,0.,24.0
1981-08-25 07:15:23.280 ,1,1,0.,24.0,0.,24.0,0.,24.0,0.,24.0
1981-08-25 07:15:47.280 ,1,0,0.,24.0,0.,24.0,0.,24.0,0.,24.0
1981-08-25 07:16:11.280 ,0,1,0.,24.0,0.,24.0,0.,24.0,0.,24.0
1981-08-25 07:16:35.280 ,0,0,0.,24.0,0.,24.0,0.,24.0,0.,24.0
1981-08-25 07:16:59.280 ,0,1,0.,24.0,0.,24.0,0.,24.0,0.,24.0
1981-08-25 07:17:23.290 ,0,0,1.,24.0,0.,24.0,0.,24.0,0.,24.0
1981-08-25 07:17:47.290 ,1,1,0.,24.0,0.,24.0,0.,24.0,0.,24.0
1981-08-25 07:18:11.290 ,1,0,0.,24.0,0.,24.0,0.,24.0,0.,24.0
1981-08-25 07:18:35.290 ,2,1,0.,24.0,0.,24.0,0.,24.0,0.,24.0
1981-08-25 07:18:59.290 ,2,0,0.,24.0,0.,24.0,0.,24.0,0.,24.0
1981-08-25 07:19:23.290 ,3,1,0.,24.0,0.,24.0,0.,24.0,0.,24.0
1981-08-25 07:19:47.290 ,3,0,0.,24.0,0.,24.0,0.,24.0,0.,24.0
1981-08-25 07:20:11.280 ,4,1,0.,24.0,0.,24.0,0.,24.0,0.,24.0
1981-08-25 07:20:35.280 ,4,0,0.,24.0,0.,24.0,0.,24.0,0.,24.0
1981-08-25 07:20:59.280 ,5,1,0.,24.0,0.,24.0,0.,24.0,0.,24.0
1981-08-25 07:21:23.280 ,5,0,0.,24.0,0.,24.0,0.,24.0,0.,24.0
1981-08-25 07:21:47.280 ,6,1,0.,24.0,1.,24.0,0.,24.0,0.,24.0
1981-08-25 07:22:11.280 ,6,0,0.,24.0,0.,24.0,0.,24.0,0.,24.0
1981-08-25 07:22:35.280 ,7,1,10.,24.0,0.,24.0,0.,24.0,0.,24.0
1981-08-25 07:22:59.280 ,7,0,30.,24.0,0.,24.0,0.,24.0,0.,24.0
1981-08-25 07:23:23.280 ,7,1,29.,24.0,0.,24.0,0.,24.0,0.,24.0
1981-08-25 07:23:47.280 ,7,0,23.,24.0,0.,24.0,0.,24.0,0.,24.0
1981-08-25 07:24:11.280 ,6,1,21.,24.0,0.,24.0,0.,24.0,0.,24.0
1981-08-25 07:24:35.280 ,6,0,0.,24.0,1.,24.0,0.,24.0,0.,24.0
1981-08-25 07:24:59.280 ,5,1,0.,24.0,0.,24.0,0.,24.0,0.,24.0
1981-08-25 07:25:23.280 ,5,0,1.,24.0,0.,24.0,0.,24.0,0.,24.0
1981-08-25 07:26:35.280 ,0,0,0.,24.0,0.,24.0,0.,24.0,0.,24.0
1981-08-25 07:26:59.280 ,0,0,0.,24.0,0.,24.0,0.,24.0,0.,24.0
1981-08-25 07:27:23.280 ,2,1,0.,24.0,0.,24.0,0.,24.0,0.,24.0
1981-08-25 07:27:47.280 ,2,0,0.,24.0,0.,24.0,0.,24.0,0.,24.0
1981-08-25 07:28:11.280 ,1,1,0.,24.0,0.,24.0,0.,24.0,0.,24.0
1981-08-25 07:28:35.280 ,1,0,0.,24.0,0.,24.0,0.,24.0,0.,24.0
1981-08-25 07:28:59.280 ,0,1,0.,24.0,0.,24.0,0.,24.0,0.,24.0
1981-08-25 07:29:23.280 ,0,0,1.,24.0,0.,24.0,0.,24.0,0.,24.0
1981-08-25 07:29:47.280 ,0,1,0.,24.0,0.,24.0,0.,24.0,0.,24.0
1981-08-25 07:30:11.280 ,0,0,0.,24.0,0.,24.0,0.,24.0,0.,24.0
1981-08-25 07:30:35.280 ,1,1,1.,24.0,0.,24.0,0.,24.0,0.,24.0
1981-08-25 07:30:59.280 ,1,0,0.,24.0,0.,24.0,0.,24.0,0.,24.0
1981-08-25 07:31:23.280 ,2,1,0.,24.0,0.,24.0,0.,24.0,0.,24.0
1981-08-25 07:31:47.280 ,2,0,0.,24.0,0.,24.0,0.,24.0,0.,24.0
1981-08-25 07:32:11.280 ,3,1,0.,24.0,0.,24.0,0.,24.0,0.,24.0
1981-08-25 07:32:35.280 ,3,0,0.,24.0,0.,24.0,0.,24.0,0.,24.0
1981-08-25 07:32:59.280 ,4,1,0.,24.0,0.,24.0,0.,24.0,0.,24.0
1981-08-25 07:33:23.280 ,4,0,0.,24.0,0.,24.0,0.,24.0,0.,24.0
1981-08-25 07:33:47.280 ,5,1,0.,24.0,0.,24.0,0.,24.0,0.,24.0
1981-08-25 07:34:11.280 ,5,0,0.,24.0,0.,24.0,0.,24.0,0.,24.0
1981-08-25 07:34:35.280 ,6,1,0.,24.0,0.,24.0,0.,24.0,0.,24.0
1981-08-25 07:34:59.280 ,6,0,0.,24.0,0.,24.0,0.,24.0,0.,24.0
1981-08-25 07:35:23.280 ,7,1,9.,24.0,0.,24.0,0.,24.0,0.,24.0
1981-08-25 07:35:47.280 ,7,0,29.,24.0,0.,24.0,0.,24.0,0.,24.0
1981-08-25 07:36:11.280 ,7,1,34.,24.0,0.,24.0,0.,24.0,0.,24.0
1981-08-25 07:36:35.280 ,7,0,43.,24.0,0.,24.0,0.,24.0,0.,24.0
1981-08-25 07:36:59.280 ,6,1,27.,24.0,0.,24.0,0.,24.0,0.,24.0
1981-08-25 07:37:23.280 ,6,0,0.,24.0,0.,24.0,0.,24.0,0.,24.0
1981-08-25 07:37:47.280 ,5,1,0.,24.0,0.,24.0,0.,24.0,0.,24.0
1981-08-25 07:38:11.280 ,5,0,0.,24.0,0.,24.0,0.,24.0,0.,24.0
1981-08-25 07:38:35.280 ,4,1,0.,24.0,0.,24.0,0.,24.0,0.,24.0
1981-08-25 07:38:59.280 ,4,0,0.,24.0,0.,24.0,0.,24.0,0.,24.0
1981-08-25 07:39:23.280 ,3,1,0.,24.0,0.,24.0,0.,24.0,0.,24.0
1981-08-25 07:39:47.280 ,3,0,0.,24.0,1.,24.0,0.,24.0,0.,24.0
1981-08-25 07:40:11.280 ,2,1,1.,24.0,0.,24.0,0.,24.0,0.,24.0
1981-08-25 07:40:35.280 ,2,0,0.,24.0,0.,24.0,0.,24.0,0.,24.0
1981-08-25 07:40:59.280 ,1,1,0.,24.0,0.,24.0,0.,24.0,0.,24.0
1981-08-25 07:41:23.280 ,1,0,0.,24.0,0.,24.0,0.,24.0,0.,24.0
1981-08-25 07:41:47.280 ,0,1,0.,24.0,0.,24.0,0.,24.0,0.,24.0
1981-08-25 07:42:11.280 ,0,0,0.,24.0,0.,24.0,0.,24.0,0.,24.0
1981-08-25 07:42:35.280 ,0,1,0.,24.0,0.,24.0,0.,24.0,0.,24.0
1981-08-25 07:42:59.280 ,0,0,0.,24.0,0.,24.0,0.,24.0,0.,24.0
1981-08-25 07:43:23.280 ,1,1,0.,24.0,0.,24.0,0.,24.0,0.,24.0
1981-08-25 07:43:47.280 ,1,0,0.,24.0,0.,24.0,0.,24.0,0.,24.0
1981-08-25 07:44:11.280 ,2,1,0.,24.0,0.,24.0,0.,24.0,0.,24.0
1981-08-25 07:44:35.280 ,2,0,0.,24.0,0.,24.0,0.,24.0,0.,24.0
1981-08-25 07:44:59.280 ,3,1,0.,24.0,0.,24.0,0.,24.0,0.,24.0
1981-08-25 07:45:23.280 ,3,0,0.,24.0,0.,24.0,0.,24.0,0.,24.0
1981-08-25 07:45:47.280 ,4,1,0.,24.0,0.,24.0,0.,24.0,0.,24.0
1981-08-25 07:46:11.280 ,4,0,0.,24.0,0.,24.0,0.,24.0,0.,24.0
1981-08-25 07:46:35.280 ,5,1,0.,24.0,0.,24.0,0.,24.0,0.,24.0
1981-08-25 07:46:59.280 ,5,0,0.,24.0,0.,24.0,0.,24.0,0.,24.0
1981-08-25 07:47:23.280 ,6,1,1.,24.0,0.,24.0,0.,24.0,0.,24.0
1981-08-25 07:47:47.280 ,6,0,0.,24.0,0.,24.0,0.,24.0,0.,24.0
1981-08-25 07:48:11.280 ,7,1,8.,24.0,0.,24.0,0.,24.0,0.,24.0
1981-08-25 07:48:35.280 ,7,0,36.,24.0,0.,24.0,0.,24.0,0.,24.0
1981-08-25 07:48:59.280 ,7,1,31.,24.0,1.,24.0,0.,24.0,0.,24.0
1981-08-25 07:49:23.280 ,7,0,27.,24.0,0.,24.0,0.,24.0,0.,24.0
1981-08-25 07:49:47.280 ,6,1,32.,24.0,0.,24.0,0.,24.0,0.,24.0
1981-08-25 07:50:11.280 ,6,0,0.,24.0,0.,24.0,0.,24.0,0.,24.0
1981-08-25 07:50:35.280 ,5,1,0.,24.0,0.,24.0,0.,24.0,0.,24.0
1981-08-25 07:50:59.280 ,5,0,0.,24.0,0.,24.0,0.,24.0,0.,24.0
1981-08-25 07:51:23.280 ,4,1,0.,24.0,0.,24.0,0.,24.0,0.,24.0
1981-08-25 07:51:47.280 ,4,0,0.,24.0,0.,24.0,0.,24.0,0.,24.0
1981-08-25 07:52:11.280 ,3,1,0.,24.0,0.,24.0,0.,24.0,0.,24.0
1981-08-25 07:52:35.280 ,3,0,0.,24.0,0.,24.0,0.,24.0,0.,24.0
1981-08-25 07:52:59.280 ,2,1,0.,24.0,0.,24.0,0.,24.0,0.,24.0
1981-08-25 07:53:23.280 ,2,0,0.,24.0,0.,24.0,0.,24.0,0.,24.0
1981-08-25 07:53:47.280 ,1,1,0.,24.0,0.,24.0,0.,24.0,0.,24.0
1981-08-25 07:54:11.280 ,1,0,0.,24.0,0.,24.0,0.,24.0,0.,24.0
1981-08-25 07:54:35.280 ,0,1,0.,24.0,0.,24.0,0.,24.0,0.,24.0
1981-08-25 07:54:59.280 ,0,0,0.,24.0,0.,24.0,0.,24.0,0.,24.0
1981-08-25 07:55:23.280 ,0,1,0.,24.0,0.,24.0,0.,24.0,0.,24.0
1981-08-25 07:55:47.280 ,0,0,0.,24.0,0.,24.0,0.,24.0,0.,24.0
1981-08-25 07:56:11.280 ,1,1,1.,24.0,0.,24.0,0.,24.0,0.,24.0
1981-08-25 07:56:35.280 ,1,0,1.,24.0,0.,24.0,0.,24.0,0.,24.0
1981-08-25 07:56:59.280 ,2,1,0.,24.0,0.,24.0,0.,24.0,0.,24.0
1981-08-25 07:57:23.280 ,2,0,0.,24.0,1.,24.0,0.,24.0,0.,24.0
1981-08-25 07:57:47.280 ,3,1,0.,24.0,0.,24.0,0.,24.0,0.,24.0
1981-08-25 07:58:11.280 ,3,0,0.,24.0,0.,24.0,0.,24.0,0.,24.0
1981-08-25 07:58:35.280 ,4,1,0.,24.0,0.,24.0,0.,24.0,0.,24.0
1981-08-25 07:58:59.280 ,4,0,0.,24.0,0.,24.0,0.,24.0,0.,24.0
1981-08-25 07:59:23.280 ,5,1,0.,24.0,0.,24.0,0.,24.0,0.,24.0
1981-08-25 07:59:47.280 ,5,0,0.,24.0,0.,24.0,0.,24.0,0.,24.0
1981-08-25 08:00:11.280 ,6,1,0.,24.0,0.,24.0,0.,24.0,0.,24.0
1981-08-25 08:00:35.280 ,6,0,0.,24.0,0.,24.0,0.,24.0,0.,24.0
1981-08-25 08:00:59.280 ,7,1,9.,24.0,0.,24.0,0.,24.0,0.,24.0
1981-08-25 08:01:23.280 ,7,0,16.,24.0,0.,24.0,0.,24.0,0.,24.0
1981-08-25 08:01:47.280 ,7,1,41.,24.0,0.,24.0,0.,24.0,0.,24.0
1981-08-25 08:02:11.280 ,7,0,28.,24.0,0.,24.0,0.,24.0,0.,24.0
1981-08-25 08:02:35.280 ,6,1,29.,24.0,0.,24.0,0.,24.0,0.,24.0
1981-08-25 08:02:59.280 ,6,0,0.,24.0,0.,24.0,0.,24.0,0.,24.0
1981-08-25 08:03:23.280 ,5,1,0.,24.0,0.,24.0,0.,24.0,0.,24.0
1981-08-25 08:03:47.280 ,5,0,0.,24.0,0.,24.0,0.,24.0,0.,24.0
1981-08-25 08:04:11.280 ,4,1,1.,24.0,0.,24.0,0.,24.0,0.,24.0
1981-08-25 08:04:35.280 ,4,0,0.,24.0,0.,24.0,0.,24.0,0.,24.0
1981-08-25 08:04:59.280 ,3,1,0.,24.0,0.,24.0,0.,24.0,0.,24.0
1981-08-25 08:05:23.280 ,3,0,1.,24.0,0.,24.0,0.,24.0,0.,24.0
1981-08-25 08:05:47.280 ,2,1,0.,24.0,0.,24.0,0.,24.0,0.,24.0
1981-08-25 08:06:11.280 ,2,0,0.,24.0,0.,24.0,0.,24.0,0.,24.0
1981-08-25 08:06:35.280 ,1,1,1.,24.0,0.,24.0,0.,24.0,0.,24.0
1981-08-25 08:06:59.280 ,1,0,0.,24.0,0.,24.0,0.,24.0,0.,24.0
1981-08-25 08:07:23.280 ,0,1,0.,24.0,0.,24.0,0.,24.0,0.,24.0
1981-08-25 08:07:47.280 ,0,0,1.,24.0,0.,24.0,0.,24.0,0.,24.0
1981-08-25 08:08:11.280 ,0,1,0.,24.0,0.,24.0,0.,24.0,0.,24.0
1981-08-25 08:08:35.280 ,0,0,1.,24.0,0.,24.0,0.,24.0,0.,24.0
1981-08-25 08:08:59.280 ,1,1,0.,24.0,0.,24.0,0.,24.0,0.,24.0
1981-08-25 08:09:23.280 ,1,0,1.,24.0,0.,24.0,0.,24.0,0.,24.0
1981-08-25 08:09:47.280 ,2,1,0.,24.0,0.,24.0,0.,24.0,0.,24.0
1981-08-25 08:10:11.280 ,2,0,0.,24.0,0.,24.0,0.,24.0,0.,24.0
1981-08-25 08:10:35.280 ,3,1,0.,24.0,0.,24.0,0.,24.0,0.,24.0
1981-08-25 08:10:59.280 ,3,0,0.,24.0,0.,24.0,0.,24.0,0.,24.0
1981-08-25 08:11:23.280 ,4,1,0.,24.0,0.,24.0,0.,24.0,0.,24.0
1981-08-25 08:11:47.280 ,4,0,0.,24.0,0.,24.0,0.,24.0,0.,24.0
1981-08-25 08:12:11.280 ,5,1,1.,24.0,0.,24.0,0.,24.0,0.,24.0
1981-08-25 08:12:35.280 ,5,0,0.,24.0,0.,24.0,0.,24.0,0.,24.0
1981-08-25 08:12:59.280 ,0,0,0.,24.0,0.,24.0,0.,24.0,0.,24.0
1981-08-25 08:13:23.280 ,0,0,,0,,0,,0,,0
1981-08-25 08:13:23.280 ,0,0,0.,24.0,0.,24.0,0.,24.0,0.,24.0
1981-08-25 08:13:47.280 ,7,1,17.,24.0,0.,24.0,0.,24.0,0.,24.0
1981-08-25 08:14:11.280 ,7,0,31.,24.0,0.,24.0,0.,24.0,0.,24.0
1981-08-25 08:14:35.280 ,7,1,25.,24.0,0.,24.0,0.,24.0,0.,24.0
1981-08-25 08:14:59.280 ,7,0,33.,24.0,1.,24.0,0.,24.0,0.,24.0
1981-08-25 08:15:23.280 ,6,1,25.,24.0,0.,24.0,0.,24.0,0.,24.0
1981-08-25 08:15:47.280 ,6,0,0.,24.0,0.,24.0,0.,24.0,0.,24.0
1981-08-25 08:16:11.280 ,5,1,0.,24.0,0.,24.0,0.,24.0,0.,24.0
1981-08-25 08:16:35.280 ,5,0,1.,24.0,0.,24.0,0.,24.0,0.,24.0
1981-08-25 08:16:59.280 ,4,1,0.,24.0,0.,24.0,0.,24.0,0.,24.0
1981-08-25 08:17:23.280 ,4,0,0.,24.0,0.,24.0,0.,24.0,0.,24.0
1981-08-25 08:17:47.280 ,3,1,0.,24.0,0.,24.0,0.,24.0,0.,24.0
1981-08-25 08:18:11.280 ,3,0,0.,24.0,0.,24.0,0.,24.0,0.,24.0
1981-08-25 08:18:35.280 ,2,1,0.,24.0,0.,24.0,0.,24.0,0.,24.0
1981-08-25 08:18:59.280 ,2,0,0.,24.0,0.,24.0,0.,24.0,0.,24.0
1981-08-25 08:19:23.280 ,1,1,0.,24.0,0.,24.0,0.,24.0,0.,24.0
1981-08-25 08:19:47.280 ,1,0,0.,24.0,0.,24.0,0.,24.0,0.,24.0
1981-08-25 08:20:11.280 ,0,1,0.,24.0,0.,24.0,0.,24.0,0.,24.0
1981-08-25 08:20:35.280 ,0,0,0.,24.0,0.,24.0,0.,24.0,0.,24.0
1981-08-25 08:20:59.280 ,0,1,0.,24.0,0.,24.0,0.,24.0,0.,24.0
1981-08-25 08:21:23.280 ,0,0,0.,24.0,0.,24.0,0.,24.0,0.,24.0
1981-08-25 08:21:47.280 ,1,1,0.,24.0,0.,24.0,0.,24.0,0.,24.0
1981-08-25 08:22:11.280 ,1,0,0.,24.0,0.,24.0,0.,24.0,0.,24.0
1981-08-25 08:22:35.280 ,2,1,0.,24.0,0.,24.0,0.,24.0,0.,24.0
1981-08-25 08:22:59.280 ,2,0,0.,24.0,0.,24.0,0.,24.0,0.,24.0
1981-08-25 08:23:23.280 ,3,1,0.,24.0,0.,24.0,0.,24.0,0.,24.0
1981-08-25 08:23:47.280 ,3,0,0.,24.0,0.,24.0,0.,24.0,0.,24.0
1981-08-25 08:24:11.280 ,4,1,0.,24.0,0.,24.0,0.,24.0,0.,24.0
1981-08-25 08:24:35.280 ,4,0,0.,24.0,1.,24.0,0.,24.0,0.,24.0
1981-08-25 08:24:59.280 ,5,1,1.,24.0,0.,24.0,0.,24.0,0.,24.0
1981-08-25 08:25:23.280 ,5,0,0.,24.0,0.,24.0,0.,24.0,0.,24.0
1981-08-25 08:25:47.280 ,6,1,0.,24.0,0.,24.0,0.,24.0,0.,24.0
1981-08-25 08:26:11.280 ,6,0,0.,24.0,0.,24.0,0.,24.0,0.,24.0
1981-08-25 08:26:35.280 ,7,1,8.,24.0,0.,24.0,0.,24.0,0.,24.0
1981-08-25 08:26:59.280 ,7,0,19.,24.0,0.,24.0,0.,24.0,0.,24.0
1981-08-25 08:27:23.280 ,7,1,26.,24.0,0.,24.0,0.,24.0,0.,24.0
1981-08-25 08:27:47.280 ,7,0,37.,24.0,0.,24.0,0.,24.0,0.,24.0
1981-08-25 08:28:11.280 ,6,1,24.,24.0,0.,24.0,0.,24.0,0.,24.0
1981-08-25 08:28:35.280 ,6,0,0.,24.0,0.,24.0,0.,24.0,0.,24.0
1981-08-25 08:28:59.280 ,5,1,0.,24.0,1.,24.0,0.,24.0,0.,24.0
1981-08-25 08:29:23.280 ,5,0,0.,24.0,0.,24.0,0.,24.0,0.,24.0
1981-08-25 08:30:35.280 ,0,0,0.,24.0,0.,24.0,0.,24.0,0.,24.0
1981-08-25 08:30:59.280 ,0,0,0.,24.0,0.,24.0,0.,24.0,0.,24.0
1981-08-25 08:31:23.280 ,2,1,0.,24.0,0.,24.0,0.,24.0,0.,24.0
1981-08-25 08:31:47.280 ,2,0,0.,24.0,0.,24.0,0.,24.0,0.,24.0
1981-08-25 08:32:11.280 ,1,1,0.,24.0,0.,24.0,0.,24.0,0.,24.0
1981-08-25 08:32:35.280 ,1,0,0.,24.0,0.,24.0,0.,24.0,0.,24.0
1981-08-25 08:32:59.280 ,0,1,0.,24.0,0.,24.0,0.,24.0,0.,24.0
1981-08-25 08:33:23.280 ,0,0,0.,24.0,1.,24.0,0.,24.0,0.,24.0
1981-08-25 08:33:47.280 ,0,1,0.,24.0,0.,24.0,0.,24.0,0.,24.0
1981-08-25 08:34:11.280 ,0,0,0.,24.0,0.,24.0,0.,24.0,0.,24.0
1981-08-25 08:34:35.280 ,1,1,0.,24.0,0.,24.0,0.,24.0,0.,24.0
1981-08-25 08:34:59.280 ,1,0,0.,24.0,0.,24.0,0.,24.0,0.,24.0
1981-08-25 08:35:23.280 ,2,1,0.,24.0,0.,24.0,0.,24.0,0.,24.0
1981-08-25 08:35:47.280 ,2,0,1.,24.0,0.,24.0,0.,24.0,0.,24.0
1981-08-25 08:36:11.280 ,3,1,0.,24.0,0.,24.0,0.,24.0,0.,24.0
1981-08-25 08:36:35.280 ,3,0,0.,24.0,0.,24.0,0.,24.0,0.,24.0
1981-08-25 08:36:59.280 ,4,1,0.,24.0,0.,24.0,0.,24.0,0.,24.0
1981-08-25 08:37:23.280 ,4,0,0.,24.0,0.,24.0,0.,24.0,0.,24.0
1981-08-25 08:37:47.280 ,5,1,0.,24.0,0.,24.0,0.,24.0,0.,24.0
1981-08-25 08:38:11.280 ,5,0,1.,24.0,0.,24.0,0.,24.0,0.,24.0